[[{"header":{"parameterUnit":"m.s-1","parameterCategory":1,"la1":30.2991,"la2":30.254,"lo1":-89.0895,"lo2":-89.0444,"dy":0.0017,"dx":0.0017,"nx":28,"ny":28,"refTime":"2024-05-14T03:00:00:Z","depth":0,"parameterNumber":2,"parameterNumberName":"U-component_of_WINDS"},"data":[0,0,0,0,0,0,0,0,0,0,0,0,0,0,0,0,0,0,0,0,0,0,0,0,0,0,0,0,0,0,0,0,0,0,0,0,0,0,0,0,0,0,0,0,0,0,0,0,0,0,0,0,0,0,0,0,0,0,-4.8339,-4.8335,0,-4.7973,-4.7969,-4.7965,-4.744,-4.743,-4.7421,-4.7413,-4.7042,-4.7041,-4.7039,0,0,0,0,0,0,0,0,0,0,0,0,0,-4.859,-4.8588,-4.834,-4.8335,-4.8331,-4.7974,-4.7969,-4.7964,-4.7441,-4.743,-4.7419,-4.7409,-4.7042,-4.7041,-4.7039,0,0,0,0,0,0,0,0,0,0,0,0,0,-4.8379,-4.8587,-4.834,-4.8026,-4.7995,-4.7975,-4.7969,-4.7963,-4.7443,-4.743,-4.7416,-4.7403,-4.7043,-4.7041,-4.7039,-4.7298,0,0,-4.7032,-4.7032,0,0,0,0,0,0,0,0,-4.8392,-4.837,-4.8077,-4.8048,-4.8012,-4.7738,-4.792,-4.774,-4.7447,-4.7653,-4.7413,-4.7397,-4.7285,-4.7262,-4.7223,-4.7281,-4.7265,-4.7032,-4.7031,-4.703,-4.7029,0,0,0,0,0,0,0,-4.8407,-4.8383,-4.8194,-4.8074,-4.8034,-4.7905,-4.786,-4.7884,-4.755,-4.7634,-4.7595,-4.7559,-4.7265,-4.7227,-4.7211,-4.726,-4.7032,-4.703,-4.7029,-4.7028,-4.7514,-4.7528,0,0,0,0,0,0,-4.8467,-4.8399,-4.8206,-4.8183,-4.8172,-4.7912,-4.7861,-4.784,-4.7548,-4.749,-4.7571,-4.7535,-4.7237,-4.7214,-4.7196,-4.7482,-4.703,-4.7028,-4.7027,-4.75,-4.7518,-4.7533,0,0,0,0,0,0,-4.8475,-4.8455,-4.8221,-4.828,-4.8241,-4.7922,-4.7902,-4.784,-4.7801,-4.75,-4.7438,-4.7593,-4.7225,-4.7199,-4.7277,-4.7462,-4.7027,-4.7025,-4.7484,-4.7506,-4.7525,-4.8059,0,0,0,0,0,0,-4.8484,-4.8461,-4.8555,-4.8286,-4.824,-4.8309,-4.7913,-4.7843,-4.7799,-4.7749,-4.7505,-4.7451,-4.7213,-4.7283,-4.7275,-4.7452,-4.7024,-4.7466,-4.7493,-4.7519,-4.8024,-4.8096,-4.8158,0,0,0,0,0,-4.8495,-4.872,-4.8563,-4.8543,-4.8351,-4.8321,-4.8294,-4.8013,-4.7816,-4.7909,-4.7716,-4.7459,-4.7443,-4.7296,-4.7282,-4.7461,-4.7453,-4.7486,-4.7517,-4.7993,-4.8082,-4.8156,0,0,0,0,0,0,-4.902,-4.8679,-4.8501,-4.8645,-4.8517,-4.8232,-4.8341,-4.8116,-4.804,-4.7998,-4.7653,-4.7603,-4.7726,-4.7599,-4.7441,-4.7698,-4.7409,-4.744,-4.7777,-4.7858,-4.7924,-4.7953,-4.7022,0,0,0,0,0,-4.9153,-4.9156,-4.8857,-4.9014,-4.8958,-4.8663,-4.8639,-4.8434,-4.8286,-4.8229,-4.8041,-4.791,-4.7873,-4.7858,-4.7808,-4.8002,-4.7943,-4.8118,-4.8186,-4.8242,-4.8274,-4.837,-4.8446,-4.7638,-4.7637,-4.7637,0,0,-4.9427,-4.9241,-4.9264,-4.9115,-4.899,-4.9004,-4.862,-4.8648,-4.8655,-4.8233,-4.8296,-4.8156,-4.7985,-4.8124,-4.8175,-4.8022,-4.8484,-4.8283,-4.833,-4.833,-4.8411,-4.8488,-4.8556,-4.7659,-4.7655,-4.7652,0,0,-4.9934,-4.9793,-4.9908,-4.9792,-4.9608,-4.941,-4.9439,-4.9189,-4.9079,-4.9136,-4.8821,-4.8824,-4.877,-4.8663,-4.8602,-4.9071,-4.8834,-4.9064,-4.9417,-4.9515,-4.9579,-4.9633,-4.9805,-4.987,-4.9096,-4.9098,-4.9098,0,-5.0298,-5.0303,-4.9997,-5.0046,-4.9992,-4.961,-4.9727,-4.9628,-4.9441,-4.9412,-4.9243,-4.9169,-4.9027,-4.9137,-4.9252,-4.9214,-4.9238,-4.9092,-4.9594,-4.9646,-4.9692,-4.9852,-4.9917,-4.9127,-4.9124,-4.9121,-4.9118,0,-5.0762,-5.0771,-5.0887,-5.0715,-5.0672,-5.0756,-5.0465,-5.0459,-5.0259,-5.0081,-5.0146,-4.9962,-4.9871,-4.9881,-4.9685,-4.9964,-4.9876,-4.9657,-4.9359,-4.9804,-4.9949,-5.0007,-4.9169,-4.9159,-4.915,-4.9143,0,0,-5.159,-5.1248,-5.1296,-5.1214,-5.0984,-5.0986,-5.1054,-5.0963,-5.0967,-5.085,-5.09,-5.0864,-5.066,-5.0591,-5.038,-5.0466,-5.0855,-5.0234,-5.0225,-5.0359,-5.1155,-5.1326,-5.1401,-5.0695,-5.0705,-5.0713,-5.1171,0,-5.2054,-5.2148,-5.1876,-5.2041,-5.2047,-5.1685,-5.1744,-5.1612,-5.1447,-5.1429,-5.1245,-5.1228,-5.0957,-5.0914,-5.0982,-5.0794,-5.1011,-5.0756,-5.0741,-5.0744,-5.0799,-5.1475,-5.1654,-5.2095,-5.1225,-5.1234,-5.1241,0,-5.2607,-5.252,-5.2687,-5.245,-5.2442,-5.25,-5.2397,-5.2384,-5.2227,-5.2101,-5.2027,-5.1781,-5.1833,-5.1548,-5.1616,-5.1449,-5.1427,-5.1334,-5.1344,-5.1334,-5.1023,-5.1488,-5.2228,-5.2297,-5.1326,-5.1319,-5.1313,0,-5.3199,-5.3123,-5.3212,-5.3153,-5.2879,-5.2929,-5.2817,-5.2646,-5.2611,-5.2521,-5.2495,-5.2414,-5.2371,-5.2315,-5.2055,-5.187,-5.2157,-5.1848,-5.2056,-5.2064,-5.2135,-5.2135,-5.2887,-5.2117,-5.2116,-5.2115,-5.2113,0,-5.3747,-5.3864,-5.3475,-5.3532,-5.3652,-5.3339,-5.3468,-5.332,-5.3172,-5.3195,-5.2876,-5.2905,-5.2558,-5.2549,-5.2346,-5.2437,-5.2418,-5.232,-5.2266,-5.2351,-5.2365,-5.2334,-5.2298,-5.2132,-5.2128,-5.2125,-5.2122,0,-5.443,-5.4173,-5.4248,-5.3983,-5.3919,-5.4021,-5.3794,-5.3836,-5.3651,-5.3684,-5.3674,-5.3386,-5.3359,-5.3094,-5.3008,-5.2871,-5.3042,-5.2926,-5.3096,-5.306,-5.3285,-5.327,-5.4046,-5.4134,-5.3308,-5.3316,-5.3323,0,-5.4798,-5.4879,-5.4624,-5.4616,-5.4519,-5.451,-5.4472,-5.4168,-5.4143,-5.3972,-5.4037,-5.3984,-5.3925,-5.39,-5.3684,-5.3619,-5.3501,-5.3778,-5.3489,-5.3574,-5.351,-5.351,-5.3519,-5.3841,-5.3852,-5.386,-5.3867,0,-5.548,-5.535,-5.5307,-5.5223,-5.5187,-5.5106,-5.5004,-5.5017,-5.4681,-5.467,-5.4638,-5.4594,-5.4508,-5.4461,-5.4358,-5.4242,-5.4004,-5.396,-5.4005,-5.4095,-5.4191,-5.4146,-5.3268,-5.3944,-5.3936,-5.393,-5.3926,-5.3923,-5.6017,-5.6074,-5.5904,-5.5869,-5.5761,-5.5675,-5.5703,-5.5522,-5.5491,-5.5397,-5.5219,-5.5217,-5.5059,-5.4895,-5.4802,-5.4797,-5.4653,-5.4718,-5.4735,-5.4757,-5.4805,-5.4191,-5.4776,-5.4774,-5.4771,-5.4769,-5.4767,0,-5.6685,-5.6559,-5.6529,-5.6399,-5.6373,-5.6146,-5.6023,-5.6017,-5.6019,-5.5892,-5.5842,-5.5809,-5.5763,-5.5545,-5.5476,-5.5514,-5.5402,-5.5507,-5.5502,-5.5481,-5.4935,-5.4904,-5.5598,-5.5598,-5.5598,-5.5598,-5.5598,-5.5598,-5.703,-5.7116,-5.6967,-5.6998,-5.6868,-5.6864,-5.6814,-5.6734,-5.6632,-5.661,-5.657,-5.6427,-5.6265,-5.6182,-5.6131,-5.6067,-5.6059,-5.6202,-5.6104,-5.5598,-5.5519,-5.5442,-5.5412,-5.6202,-5.6203,-5.6649,-5.6654,-5.6657]},{"header":{"parameterUnit":"m.s-1","parameterCategory":1,"la1":30.2991,"la2":30.254,"lo1":-89.0895,"lo2":-89.0444,"dy":0.0017,"dx":0.0017,"nx":28,"ny":28,"refTime":"2024-05-14T03:00:00:Z","depth":0,"parameterNumber":3,"parameterNumberName":"V-component_of_WINDS"},"data":[0,0,0,0,0,0,0,0,0,0,0,0,0,0,0,0,0,0,0,0,0,0,0,0,0,0,0,0,0,0,0,0,0,0,0,0,0,0,0,0,0,0,0,0,0,0,0,0,0,0,0,0,0,0,0,0,0,0,2.5913,2.5913,0,2.5915,2.5915,2.5915,2.5737,2.5732,2.5728,2.5723,2.5735,2.574,2.5745,0,0,0,0,0,0,0,0,0,0,0,0,0,2.576,2.5764,2.5913,2.5913,2.5913,2.5915,2.5915,2.5915,2.5738,2.5732,2.5726,2.5721,2.5734,2.5739,2.5745,0,0,0,0,0,0,0,0,0,0,0,0,0,2.5801,2.5765,2.5913,2.5824,2.5816,2.5915,2.5915,2.5915,2.5739,2.5732,2.5725,2.5718,2.5732,2.5739,2.5746,2.5933,0,0,2.5768,2.5771,0,0,0,0,0,0,0,0,2.5799,2.5807,2.5837,2.583,2.5822,2.5818,2.5866,2.5922,2.5741,2.5769,2.5723,2.5715,2.5769,2.5773,2.5789,2.5933,2.5934,2.5768,2.5773,2.5776,2.5778,0,0,0,0,0,0,0,2.5797,2.5806,2.5914,2.5838,2.5829,2.5786,2.5784,2.5876,2.581,2.5766,2.5753,2.5755,2.5764,2.5783,2.5788,2.5934,2.5768,2.5774,2.5779,2.5782,2.6229,2.6236,0,0,0,0,0,0,2.5805,2.5805,2.5914,2.5914,2.5792,2.5795,2.5793,2.5827,2.5808,2.5798,2.5761,2.5747,2.5774,2.578,2.5788,2.6005,2.5776,2.5782,2.5786,2.6222,2.6231,2.6239,0,0,0,0,0,0,2.5802,2.5816,2.5914,2.5856,2.5865,2.5805,2.5845,2.5831,2.5849,2.5804,2.5792,2.5793,2.5769,2.5778,2.5897,2.6003,2.5786,2.5792,2.6213,2.6224,2.6235,2.6442,0,0,0,0,0,0,2.5799,2.5816,2.5886,2.5859,2.5869,2.6022,2.5851,2.5836,2.5861,2.5842,2.583,2.5822,2.5764,2.5887,2.5904,2.6009,2.5798,2.6203,2.6218,2.6231,2.6425,2.6459,2.6488,0,0,0,0,0,2.5794,2.5946,2.589,2.5904,2.5954,2.6028,2.6034,2.5962,2.587,2.5941,2.5911,2.5822,2.5988,2.5901,2.5918,2.6027,2.6196,2.6214,2.623,2.6411,2.6452,2.6487,0,0,0,0,0,0,2.5992,2.5941,2.5878,2.6026,2.6032,2.5998,2.6084,2.6008,2.6043,2.6024,2.5935,2.5934,2.6068,2.6058,2.5963,2.6206,2.6076,2.6098,2.6208,2.6246,2.6277,2.6278,2.5804,0,0,0,0,0,2.6051,2.6114,2.6067,2.6202,2.6207,2.6146,2.6175,2.6118,2.6123,2.6126,2.6104,2.6114,2.6168,2.6206,2.6253,2.6421,2.6417,2.6504,2.6536,2.6561,2.6583,2.6671,2.671,2.6295,2.6295,2.6295,0,0,2.6178,2.6158,2.6204,2.6241,2.6239,2.6308,2.6149,2.6229,2.6279,2.6138,2.6249,2.6234,2.6238,2.6383,2.6445,2.6379,2.6695,2.6583,2.6604,2.6611,2.6692,2.6732,2.6767,2.6307,2.6305,2.6303,0,0,2.6444,2.6434,2.6545,2.6545,2.6542,2.6499,2.6525,2.6501,2.6485,2.6593,2.6488,2.6547,2.6642,2.665,2.6666,2.693,2.685,2.6947,2.7112,2.7199,2.7232,2.7261,2.7357,2.7392,2.6968,2.6968,2.6968,0,2.6603,2.6699,2.6613,2.6698,2.6718,2.6588,2.6701,2.6706,2.6721,2.6739,2.6663,2.6777,2.6771,2.6915,2.6979,2.6996,2.7025,2.6951,2.7234,2.7261,2.7287,2.7378,2.7414,2.698,2.6979,2.6977,2.6976,0,2.6895,2.6963,2.7054,2.7067,2.7096,2.7196,2.7125,2.7166,2.7105,2.7071,2.7183,2.7169,2.7212,2.724,2.7184,2.7377,2.7336,2.7248,2.7117,2.734,2.7424,2.7458,2.6997,2.6993,2.6989,2.6986,0,0,2.7292,2.7251,2.7286,2.729,2.7275,2.7327,2.742,2.7457,2.7494,2.7507,2.7585,2.7665,2.7583,2.7601,2.7544,2.762,2.7831,2.7522,2.7521,2.7582,2.8044,2.8113,2.8154,2.7775,2.7781,2.7786,2.8044,0,2.7551,2.7705,2.7628,2.7793,2.7855,2.773,2.781,2.7811,2.778,2.783,2.7796,2.7856,2.7742,2.7752,2.7821,2.7791,2.7923,2.777,2.785,2.7854,2.7857,2.8198,2.8271,2.8516,2.8076,2.8082,2.8086,0,2.7876,2.7898,2.8069,2.8039,2.8063,2.8137,2.8163,2.8211,2.8209,2.8181,2.82,2.8123,2.8214,2.8079,2.8204,2.8102,2.8128,2.8118,2.8126,2.8134,2.7987,2.8219,2.8592,2.863,2.8136,2.8132,2.8128,0,2.8151,2.8224,2.8334,2.8341,2.831,2.8364,2.8354,2.8344,2.8371,2.8395,2.8411,2.8446,2.8467,2.8497,2.8432,2.834,2.8566,2.8426,2.8548,2.8551,2.8606,2.8604,2.8993,2.8618,2.8617,2.8616,2.8615,0,2.8452,2.8562,2.8457,2.8527,2.8645,2.8554,2.8676,2.8652,2.8644,2.8707,2.86,2.8663,2.8571,2.8625,2.8575,2.8687,2.8696,2.8678,2.8664,2.869,2.8693,2.871,2.8693,2.8626,2.8624,2.8622,2.862,0,2.8782,2.8716,2.8829,2.8787,2.8779,2.887,2.8835,2.8898,2.8856,2.8938,2.8952,2.889,2.8947,2.8883,2.8937,2.8903,2.9054,2.9013,2.9055,2.9045,2.9172,2.9162,2.9588,2.964,2.9229,2.9232,2.9236,0,2.8981,2.9061,2.9027,2.9059,2.9054,2.9109,2.9134,2.9047,2.9078,2.9079,2.9143,2.9189,2.9223,2.9321,2.9282,2.9322,2.9284,2.943,2.929,2.9313,2.929,2.9288,2.9296,2.9461,2.9466,2.947,2.9473,0,2.934,2.9302,2.9341,2.9368,2.9399,2.9417,2.9427,2.9461,2.937,2.941,2.9465,2.9491,2.9542,2.9592,2.9619,2.9611,2.953,2.9516,2.9547,2.9577,2.9599,2.9591,2.9137,2.9508,2.9505,2.9502,2.95,2.9499,2.9613,2.9678,2.9663,2.9709,2.9706,2.9717,2.9774,2.9737,2.978,2.9814,2.9759,2.9829,2.9822,2.985,2.9851,2.9906,2.9844,2.9888,2.99,2.9914,2.9934,2.9585,2.991,2.9909,2.9908,2.9907,2.9906,0,2.997,2.9952,2.9995,3.001,3.0046,2.9958,2.9964,3.0002,3.0063,3.0062,3.0095,3.0158,3.0204,3.0166,3.0205,3.0256,3.0219,3.027,3.0268,3.0267,2.9986,2.9956,3.0299,3.0299,3.0298,3.0298,3.0298,3.0298,3.016,3.0266,3.0226,3.033,3.0311,3.0376,3.0387,3.0397,3.0395,3.0469,3.0506,3.0478,3.0463,3.0499,3.0537,3.0525,3.0546,3.0611,3.0586,3.0325,3.0287,3.025,3.0223,3.0615,3.0616,3.0863,3.0865,3.0867]}]]